Flag for Canada

Past Weather in Resolute Bay, Nunavut, Canada — Yesterday and Last 2 Weeks

Now
45 °F

Partly sunny.


Feels Like: 37 °F
Forecast: 45 / 33 °F
Wind: 17 mph from Northwest

Location: Resolute

Current Time: Jul 10, 2020 at 5:44:34 am

Latest Report: Jul 10, 2020 at 5:00 am


Visibility: 30 mi

Pressure: 29.77 "Hg

Humidity: 76%

Dew Point: 37 °F

Location of Resolute BayLocation

Past Weather in Resolute Bay — Graph

°F

Resolute Bay Temperature Yesterday

Maximum temperature yesterday: 55 °F (at 7:00 pm)
Minimum temperature yesterday: 45 °F (at 3:00 am)
Average temperature yesterday: 50 °F

High & Low Weather Summary for the Past Weeks

 TemperatureHumidityPressure
High57 °F (Jul 5, 4:00 pm)100% (Jun 26, 5:00 am)30.34 "Hg (Jun 26, 5:00 am)
Low36 °F (Jun 29, 4:00 am)54% (Jul 9, 3:00 pm)29.59 "Hg (Jun 25, 5:00 am)
Average42 °F86%29.99 "Hg
* Reported Jun 25 4:00 am — Jul 10 4:00 am, Resolute Bay. Weather by CustomWeather, © 2020

Note: Actual official high and low records may vary slightly from our data, if they occured in-between our weather recording intervals... More about our weather records

Resolute Bay Weather History for the Previous 24 Hours

Scroll right to see more
 ConditionsComfort  
Time TempWeatherWind HumidityBarometerVisibility
4:00 am
Fri, Jul 10
45 °FScattered clouds.10 mph76%29.77 "Hg30 mi
3:00 am45 °FScattered clouds.7 mph81%29.77 "Hg30 mi
2:00 am45 °FScattered clouds.10 mph76%29.76 "Hg30 mi
1:00 am46 °FPassing clouds.13 mph71%29.77 "Hg30 mi
12:00 am48 °FPartly sunny.12 mph66%29.77 "Hg30 mi
11:00 pm
Thu, Jul 9
50 °FScattered clouds.13 mph67%29.78 "Hg30 mi
10:00 pm54 °FPassing clouds.12 mph58%29.78 "Hg30 mi
9:00 pm50 °FPassing clouds.8 mph62%29.79 "Hg30 mi
8:00 pm52 °FPassing clouds.9 mph58%29.79 "Hg30 mi
7:00 pm55 °FPassing clouds.9 mph55%29.80 "Hg30 mi
6:00 pm54 °FPassing clouds.10 mph58%29.80 "Hg30 mi
5:00 pm54 °FPassing clouds.12 mph58%29.81 "Hg30 mi
4:00 pm54 °FPassing clouds.13 mph58%29.82 "Hg30 mi
3:00 pm54 °FPassing clouds.12 mph54%29.83 "Hg30 mi
2:00 pm52 °FPassing clouds.8 mph62%29.83 "Hg30 mi
1:00 pm52 °FPassing clouds.9 mph67%29.84 "Hg30 mi
12:00 pm50 °FPassing clouds.7 mph71%29.85 "Hg30 mi
11:00 am50 °FSunny.6 mph71%29.85 "Hg30 mi
10:00 am52 °FSunny.6 mph67%29.87 "Hg30 mi
9:00 am50 °FSunny.5 mph71%29.88 "Hg30 mi
8:00 am48 °FSunny.5 mph76%29.88 "Hg30 mi
7:00 am46 °FSunny.3 mph82%29.89 "Hg30 mi
6:00 am45 °FSunny.3 mph81%29.90 "Hg30 mi
5:00 am45 °FSunny.No wind81%29.90 "Hg30 mi
Weather by CustomWeather, © 2020

See weather overview